"FRM_AIS_EDR_2201.DAT           ",2005-10-01T00:33:26.58 ,"1/0076206801.33756",    0,    0,  274896,"AIS","B1","B1","B1","B1","PISd",0,0,0,0,"B1", 0,15,   0, 0,    0,"AIS","N/A    ","OK ","OK ",    001173.161,    -086.578,    0118.672,    0006.511,    0067.529
"FRM_AIS_EDR_2201.DAT           ",2005-10-01T00:33:34.12 ,"1/0076206809.03820",    0,    1,  274896,"AIS","B1","B1","B1","B1","PISd",0,0,0,0,"B1", 0,15,   0, 0,    0,"AIS","N/A    ","OK ","OK ",    001162.777,    -086.623,    0124.135,    0006.878,    0067.218
"FRM_AIS_EDR_2201.DAT           ",2005-10-01T00:33:41.67 ,"1/0076206816.39419",    0,    2,  274896,"AIS","B1","B1","B1","B1","PISd",0,0,0,0,"B1", 0,15,   0, 0,    0,"AIS","N/A    ","OK ","OK ",    001152.423,    -086.636,    0129.719,    0007.252,    0066.906
"FRM_AIS_EDR_2201.DAT           ",2005-10-01T00:33:49.21 ,"1/0076206824.09483",    0,    3,  274896,"AIS","B1","B1","B1","B1","PISd",0,0,0,0,"B1", 0,15,   0, 0,    0,"AIS","N/A    ","OK ","OK ",    001142.101,    -086.617,    0135.321,    0007.628,    0066.593
"FRM_AIS_EDR_2201.DAT           ",2005-10-01T00:33:56.75 ,"1/0076206831.45082",    0,    4,  274896,"AIS","B1","B1","B1","B1","PISd",0,0,0,0,"B1", 0,15,   0, 0,    0,"AIS","N/A    ","OK ","OK ",    001131.811,    -086.566,    0140.832,    0007.997,    0066.278
"FRM_AIS_EDR_2201.DAT           ",2005-10-01T00:34:04.30 ,"1/0076206839.15145",    0,    5,  274896,"AIS","B1","B1","B1","B1","PISd",0,0,0,0,"B1", 0,15,   0, 0,    0,"AIS","N/A    ","OK ","OK ",    001121.553,    -086.483,    0146.156,    0008.354,    0065.962
"FRM_AIS_EDR_2201.DAT           ",2005-10-01T00:34:11.84 ,"1/0076206846.50745",    0,    6,  274896,"AIS","B1","B1","B1","B1","PISd",0,0,0,0,"B1", 0,15,   0, 0,    0,"AIS","N/A    ","OK ","OK ",    001111.328,    -086.371,    0151.215,    0008.693,    0065.644
"FRM_AIS_EDR_2201.DAT           ",2005-10-01T00:34:19.38 ,"1/0076206854.20808",    0,    7,  274896,"AIS","B1","B1","B1","B1","PISd",0,0,0,0,"B1", 0,15,   0, 0,    0,"AIS","N/A    ","OK ","OK ",    001101.136,    -086.231,    0155.954,    0009.011,    0065.325
"FRM_AIS_EDR_2201.DAT           ",2005-10-01T00:34:26.93 ,"1/0076206861.56407",    0,    8,  274896,"AIS","B1","B1","B1","B1","PISd",0,0,0,0,"B1", 0,15,   0, 0,    0,"AIS","N/A    ","OK ","OK ",    001090.978,    -086.067,    0160.345,    0009.306,    0065.005
"FRM_AIS_EDR_2201.DAT           ",2005-10-01T00:34:34.47 ,"1/0076206869.26471",    0,    9,  274896,"AIS","B1","B1","B1","B1","PISd",0,0,0,0,"B1", 0,15,   0, 0,    0,"AIS","N/A    ","OK ","OK ",    001080.855,    -085.880,    0164.376,    0009.577,    0064.683
"FRM_AIS_EDR_2201.DAT           ",2005-10-01T00:34:42.01 ,"1/0076206876.62070",    0,   10,  274896,"AIS","B1","B1","B1","B1","PISd",0,0,0,0,"B1", 0,15,   0, 0,    0,"AIS","N/A    ","OK ","OK ",    001070.766,    -085.673,    0168.054,    0009.824,    0064.360
"FRM_AIS_EDR_2201.DAT           ",2005-10-01T00:34:49.56 ,"1/0076206884.32133",    0,   11,  274896,"AIS","B1","B1","B1","B1","PISd",0,0,0,0,"B1", 0,15,   0, 0,    0,"AIS","N/A    ","OK ","OK ",    001060.713,    -085.449,    0171.397,    0010.049,    0064.035
"FRM_AIS_EDR_2201.DAT           ",2005-10-01T00:34:57.10 ,"1/0076206892.02197",    0,   12,  274896,"AIS","B1","B1","B1","B1","PISd",0,0,0,0,"B1", 0,15,   0, 0,    0,"AIS","N/A    ","OK ","OK ",    001050.696,    -085.209,    0174.427,    0010.253,    0063.709
"FRM_AIS_EDR_2201.DAT           ",2005-10-01T00:35:04.64 ,"1/0076206899.37796",    0,   13,  274896,"AIS","B1","B1","B1","B1","PISd",0,0,0,0,"B1", 0,15,   0, 0,    0,"AIS","N/A    ","OK ","OK ",    001040.715,    -084.956,    0177.172,    0010.438,    0063.382
"FRM_AIS_EDR_2201.DAT           ",2005-10-01T00:35:12.19 ,"1/0076206907.07860",    0,   14,  274896,"AIS","B1","B1","B1","B1","PISd",0,0,0,0,"B1", 0,15,   0, 0,    0,"AIS","N/A    ","OK ","OK ",    001030.770,    -084.691,    0179.657,    0010.606,    0063.053
"FRM_AIS_EDR_2201.DAT           ",2005-10-01T00:35:19.73 ,"1/0076206914.43459",    0,   15,  274896,"AIS","B1","B1","B1","B1","PISd",0,0,0,0,"B1", 0,15,   0, 0,    0,"AIS","N/A    ","OK ","OK ",    001020.864,    -084.416,    -178.090,    0010.758,    0062.723
"FRM_AIS_EDR_2201.DAT           ",2005-10-01T00:35:27.27 ,"1/0076206922.13522",    0,   16,  274896,"AIS","B1","B1","B1","B1","PISd",0,0,0,0,"B1", 0,15,   0, 0,    0,"AIS","N/A    ","OK ","OK ",    001010.995,    -084.131,    -176.045,    0010.896,    0062.392
"FRM_AIS_EDR_2201.DAT           ",2005-10-01T00:35:34.82 ,"1/0076206929.49122",    0,   17,  274896,"AIS","B1","B1","B1","B1","PISd",0,0,0,0,"B1", 0,15,   0, 0,    0,"AIS","N/A    ","OK ","OK ",    001001.165,    -083.839,    -174.186,    0011.022,    0062.059
"FRM_AIS_EDR_2201.DAT           ",2005-10-01T00:35:42.36 ,"1/0076206937.19185",    0,   18,  274896,"AIS","B1","B1","B1","B1","PISd",0,0,0,0,"B1", 0,15,   0, 0,    0,"AIS","N/A    ","OK ","OK ",    000991.374,    -083.538,    -172.491,    0011.137,    0061.725
"FRM_AIS_EDR_2201.DAT           ",2005-10-01T00:35:49.90 ,"1/0076206944.54784",    0,   19,  274896,"AIS","B1","B1","B1","B1","PISd",0,0,0,0,"B1", 0,15,   0, 0,    0,"AIS","N/A    ","OK ","OK ",    000981.622,    -083.231,    -170.944,    0011.242,    0061.389
"FRM_AIS_EDR_2201.DAT           ",2005-10-01T00:35:57.45 ,"1/0076206952.24848",    0,   20,  274896,"AIS","B1","B1","B1","B1","PISd",0,0,0,0,"B1", 0,15,   0, 0,    0,"AIS","N/A    ","OK ","OK ",    000971.911,    -082.919,    -169.528,    0011.339,    0061.052
"FRM_AIS_EDR_2201.DAT           ",2005-10-01T00:36:04.99 ,"1/0076206959.60447",    0,   21,  274896,"AIS","B1","B1","B1","B1","PISd",0,0,0,0,"B1", 0,15,   0, 0,    0,"AIS","N/A    ","OK ","OK ",    000962.240,    -082.600,    -168.229,    0011.428,    0060.714
"FRM_AIS_EDR_2201.DAT           ",2005-10-01T00:36:12.53 ,"1/0076206967.30510",    0,   22,  274896,"AIS","B1","B1","B1","B1","PISd",0,0,0,0,"B1", 0,15,   0, 0,    0,"AIS","N/A    ","OK ","OK ",    000952.610,    -082.277,    -167.035,    0011.509,    0060.374
"FRM_AIS_EDR_2201.DAT           ",2005-10-01T00:36:20.08 ,"1/0076206975.00574",    0,   23,  274896,"AIS","B1","B1","B1","B1","PISd",0,0,0,0,"B1", 0,15,   0, 0,    0,"AIS","N/A    ","OK ","OK ",    000943.023,    -081.948,    -165.934,    0011.585,    0060.033
"FRM_AIS_EDR_2201.DAT           ",2005-10-01T00:36:27.62 ,"1/0076206982.36173",    0,   24,  274896,"AIS","B1","B1","B1","B1","PISd",0,0,0,0,"B1", 0,15,   0, 0,    0,"AIS","N/A    ","OK ","OK ",    000933.477,    -081.616,    -164.917,    0011.654,    0059.690
"FRM_AIS_EDR_2201.DAT           ",2005-10-01T00:36:35.16 ,"1/0076206990.06236",    0,   25,  274896,"AIS","B1","B1","B1","B1","PISd",0,0,0,0,"B1", 0,15,   0, 0,    0,"AIS","N/A    ","OK ","OK ",    000923.975,    -081.279,    -163.975,    0011.719,    0059.346
"FRM_AIS_EDR_2201.DAT           ",2005-10-01T00:36:42.70 ,"1/0076206997.41836",    0,   26,  274896,"AIS","B1","B1","B1","B1","PISd",0,0,0,0,"B1", 0,15,   0, 0,    0,"AIS","N/A    ","OK ","OK ",    000914.516,    -080.939,    -163.102,    0011.779,    0059.001
"FRM_AIS_EDR_2201.DAT           ",2005-10-01T00:36:50.25 ,"1/0076207005.11899",    0,   27,  274896,"AIS","B1","B1","B1","B1","PISd",0,0,0,0,"B1", 0,15,   0, 0,    0,"AIS","N/A    ","OK ","OK ",    000905.101,    -080.595,    -162.290,    0011.836,    0058.654
"FRM_AIS_EDR_2201.DAT           ",2005-10-01T00:36:57.79 ,"1/0076207012.47499",    0,   28,  274896,"AIS","B1","B1","B1","B1","PISd",0,0,0,0,"B1", 0,15,   0, 0,    0,"AIS","N/A    ","OK ","OK ",    000895.731,    -080.248,    -161.534,    0011.888,    0058.306
"FRM_AIS_EDR_2201.DAT           ",2005-10-01T00:37:05.33 ,"1/0076207020.17562",    0,   29,  274896,"AIS","B1","B1","B1","B1","PISd",0,0,0,0,"B1", 0,15,   0, 0,    0,"AIS","N/A    ","OK ","OK ",    000886.406,    -079.897,    -160.829,    0011.937,    0057.956
"FRM_AIS_EDR_2201.DAT           ",2005-10-01T00:37:12.88 ,"1/0076207027.53161",    0,   30,  274896,"AIS","B1","B1","B1","B1","PISd",0,0,0,0,"B1", 0,15,   0, 0,    0,"AIS","N/A    ","OK ","OK ",    000877.127,    -079.544,    -160.170,    0011.983,    0057.605
"FRM_AIS_EDR_2201.DAT           ",2005-10-01T00:37:20.42 ,"1/0076207035.23225",    0,   31,  274896,"AIS","B1","B1","B1","B1","PISd",0,0,0,0,"B1", 0,15,   0, 0,    0,"AIS","N/A    ","OK ","OK ",    000867.894,    -079.187,    -159.552,    0012.026,    0057.253
"FRM_AIS_EDR_2201.DAT           ",2005-10-01T00:37:27.96 ,"1/0076207042.58824",    0,   32,  274896,"AIS","B1","B1","B1","B1","PISd",0,0,0,0,"B1", 0,15,   0, 0,    0,"AIS","N/A    ","OK ","OK ",    000858.708,    -078.828,    -158.973,    0012.067,    0056.899
"FRM_AIS_EDR_2201.DAT           ",2005-10-01T00:37:35.51 ,"1/0076207050.28887",    0,   33,  274896,"AIS","B1","B1","B1","B1","PISd",0,0,0,0,"B1", 0,15,   0, 0,    0,"AIS","N/A    ","OK ","OK ",    000849.570,    -078.466,    -158.430,    0012.105,    0056.544
"FRM_AIS_EDR_2201.DAT           ",2005-10-01T00:37:43.05 ,"1/0076207057.64487",    0,   34,  274896,"AIS","B1","B1","B1","B1","PISd",0,0,0,0,"B1", 0,15,   0, 0,    0,"AIS","N/A    ","OK ","OK ",    000840.480,    -078.101,    -157.918,    0012.141,    0056.187
"FRM_AIS_EDR_2201.DAT           ",2005-10-01T00:37:50.59 ,"1/0076207065.34550",    0,   35,  274896,"AIS","B1","B1","B1","B1","PISd",0,0,0,0,"B1", 0,15,   0, 0,    0,"AIS","N/A    ","OK ","OK ",    000831.439,    -077.734,    -157.437,    0012.176,    0055.829
"FRM_AIS_EDR_2201.DAT           ",2005-10-01T00:37:58.14 ,"1/0076207073.04613",    0,   36,  274896,"AIS","B1","B1","B1","B1","PISd",0,0,0,0,"B1", 0,15,   0, 0,    0,"AIS","N/A    ","OK ","OK ",    000822.447,    -077.365,    -156.982,    0012.208,    0055.470
"FRM_AIS_EDR_2201.DAT           ",2005-10-01T00:38:05.68 ,"1/0076207080.40213",    0,   37,  274896,"AIS","B1","B1","B1","B1","PISd",0,0,0,0,"B1", 0,15,   0, 0,    0,"AIS","N/A    ","OK ","OK ",    000813.505,    -076.993,    -156.553,    0012.239,    0055.109
"FRM_AIS_EDR_2201.DAT           ",2005-10-01T00:38:13.22 ,"1/0076207088.10276",    0,   38,  274896,"AIS","B1","B1","B1","B1","PISd",0,0,0,0,"B1", 0,15,   0, 0,    0,"AIS","N/A    ","OK ","OK ",    000804.614,    -076.618,    -156.148,    0012.268,    0054.747
"FRM_AIS_EDR_2201.DAT           ",2005-10-01T00:38:20.77 ,"1/0076207095.45875",    0,   39,  274896,"AIS","B1","B1","B1","B1","PISd",0,0,0,0,"B1", 0,15,   0, 0,    0,"AIS","N/A    ","OK ","OK ",    000795.774,    -076.242,    -155.764,    0012.295,    0054.384
"FRM_AIS_EDR_2201.DAT           ",2005-10-01T00:38:28.31 ,"1/0076207103.15939",    0,   40,  274896,"AIS","B1","B1","B1","B1","PISd",0,0,0,0,"B1", 0,15,   0, 0,    0,"AIS","N/A    ","OK ","OK ",    000786.986,    -075.863,    -155.400,    0012.322,    0054.019
"FRM_AIS_EDR_2201.DAT           ",2005-10-01T00:38:35.85 ,"1/0076207110.51538",    0,   41,  274896,"AIS","B1","B1","B1","B1","PISd",0,0,0,0,"B1", 0,15,   0, 0,    0,"AIS","N/A    ","OK ","OK ",    000778.251,    -075.481,    -155.055,    0012.347,    0053.653
"FRM_AIS_EDR_2201.DAT           ",2005-10-01T00:38:43.40 ,"1/0076207118.21601",    0,   42,  274896,"AIS","B1","B1","B1","B1","PISd",0,0,0,0,"B1", 0,15,   0, 0,    0,"AIS","N/A    ","OK ","OK ",    000769.568,    -075.098,    -154.727,    0012.371,    0053.286
"FRM_AIS_EDR_2201.DAT           ",2005-10-01T00:38:50.94 ,"1/0076207125.57201",    0,   43,  274896,"AIS","B1","B1","B1","B1","PISd",0,0,0,0,"B1", 0,15,   0, 0,    0,"AIS","N/A    ","OK ","OK ",    000760.940,    -074.713,    -154.415,    0012.393,    0052.917
"FRM_AIS_EDR_2201.DAT           ",2005-10-01T00:38:58.48 ,"1/0076207133.27264",    0,   44,  274896,"AIS","B1","B1","B1","B1","PISd",0,0,0,0,"B1", 0,15,   0, 0,    0,"AIS","N/A    ","OK ","OK ",    000752.365,    -074.325,    -154.119,    0012.415,    0052.547
"FRM_AIS_EDR_2201.DAT           ",2005-10-01T00:39:06.03 ,"1/0076207140.62863",    0,   45,  274896,"AIS","B1","B1","B1","B1","PISd",0,0,0,0,"B1", 0,15,   0, 0,    0,"AIS","N/A    ","OK ","OK ",    000743.846,    -073.936,    -153.836,    0012.436,    0052.176
"FRM_AIS_EDR_2201.DAT           ",2005-10-01T00:39:13.57 ,"1/0076207148.32927",    0,   46,  274896,"AIS","B1","B1","B1","B1","PISd",0,0,0,0,"B1", 0,15,   0, 0,    0,"AIS","N/A    ","OK ","OK ",    000735.383,    -073.544,    -153.567,    0012.456,    0051.803
"FRM_AIS_EDR_2201.DAT           ",2005-10-01T00:39:21.11 ,"1/0076207156.02990",    0,   47,  274896,"AIS","B1","B1","B1","B1","PISd",0,0,0,0,"B1", 0,15,   0, 0,    0,"AIS","N/A    ","OK ","OK ",    000726.976,    -073.150,    -153.311,    0012.475,    0051.429
"FRM_AIS_EDR_2201.DAT           ",2005-10-01T00:39:28.66 ,"1/0076207163.38589",    0,   48,  274896,"AIS","B1","B1","B1","B1","PISd",0,0,0,0,"B1", 0,15,   0, 0,    0,"AIS","N/A    ","OK ","OK ",    000718.625,    -072.755,    -153.066,    0012.494,    0051.054
"FRM_AIS_EDR_2201.DAT           ",2005-10-01T00:39:36.20 ,"1/0076207171.08653",    0,   49,  274896,"AIS","B1","B1","B1","B1","PISd",0,0,0,0,"B1", 0,15,   0, 0,    0,"AIS","N/A    ","OK ","OK ",    000710.333,    -072.357,    -152.831,    0012.511,    0050.677
"FRM_AIS_EDR_2201.DAT           ",2005-10-01T00:39:43.74 ,"1/0076207178.44252",    0,   50,  274896,"AIS","B1","B1","B1","B1","PISd",0,0,0,0,"B1", 0,15,   0, 0,    0,"AIS","N/A    ","OK ","OK ",    000702.098,    -071.958,    -152.608,    0012.528,    0050.299
"FRM_AIS_EDR_2201.DAT           ",2005-10-01T00:39:51.28 ,"1/0076207186.14315",    0,   51,  274896,"AIS","B1","B1","B1","B1","PISd",0,0,0,0,"B1", 0,15,   0, 0,    0,"AIS","N/A    ","OK ","OK ",    000693.923,    -071.556,    -152.394,    0012.544,    0049.920
"FRM_AIS_EDR_2201.DAT           ",2005-10-01T00:39:58.83 ,"1/0076207193.49915",    0,   52,  274896,"AIS","B1","B1","B1","B1","PISd",0,0,0,0,"B1", 0,15,   0, 0,    0,"AIS","N/A    ","OK ","OK ",    000685.807,    -071.153,    -152.189,    0012.560,    0049.540
"FRM_AIS_EDR_2201.DAT           ",2005-10-01T00:40:06.37 ,"1/0076207201.19978",    0,   53,  274896,"AIS","B1","B1","B1","B1","PISd",0,0,0,0,"B1", 0,15,   0, 0,    0,"AIS","N/A    ","OK ","OK ",    000677.751,    -070.748,    -151.993,    0012.575,    0049.158
"FRM_AIS_EDR_2201.DAT           ",2005-10-01T00:40:13.91 ,"1/0076207208.55578",    0,   54,  274896,"AIS","B1","B1","B1","B1","PISd",0,0,0,0,"B1", 0,15,   0, 0,    0,"AIS","N/A    ","OK ","OK ",    000669.756,    -070.341,    -151.805,    0012.590,    0048.776
"FRM_AIS_EDR_2201.DAT           ",2005-10-01T00:40:21.46 ,"1/0076207216.25641",    0,   55,  274896,"AIS","B1","B1","B1","B1","PISd",0,0,0,0,"B1", 0,15,   0, 0,    0,"AIS","N/A    ","OK ","OK ",    000661.823,    -069.932,    -151.624,    0012.604,    0048.392
"FRM_AIS_EDR_2201.DAT           ",2005-10-01T00:40:29.00 ,"1/0076207223.61240",    0,   56,  274896,"AIS","B1","B1","B1","B1","PISd",0,0,0,0,"B1", 0,15,   0, 0,    0,"AIS","N/A    ","OK ","OK ",    000653.951,    -069.521,    -151.451,    0012.617,    0048.007
"FRM_AIS_EDR_2201.DAT           ",2005-10-01T00:40:36.54 ,"1/0076207231.31304",    0,   57,  274896,"AIS","B1","B1","B1","B1","PISd",0,0,0,0,"B1", 0,15,   0, 0,    0,"AIS","N/A    ","OK ","OK ",    000646.143,    -069.109,    -151.285,    0012.631,    0047.620
"FRM_AIS_EDR_2201.DAT           ",2005-10-01T00:40:44.09 ,"1/0076207239.01367",    0,   58,  274896,"AIS","B1","B1","B1","B1","PISd",0,0,0,0,"B1", 0,15,   0, 0,    0,"AIS","N/A    ","OK ","OK ",    000638.398,    -068.694,    -151.126,    0012.643,    0047.233
"FRM_AIS_EDR_2201.DAT           ",2005-10-01T00:40:51.63 ,"1/0076207246.36966",    0,   59,  274896,"AIS","B1","B1","B1","B1","PISd",0,0,0,0,"B1", 0,15,   0, 0,    0,"AIS","N/A    ","OK ","OK ",    000630.717,    -068.278,    -150.973,    0012.656,    0046.844
"FRM_AIS_EDR_2201.DAT           ",2005-10-01T00:40:59.17 ,"1/0076207254.07030",    0,   60,  274896,"AIS","B1","B1","B1","B1","PISd",0,0,0,0,"B1", 0,15,   0, 0,    0,"AIS","N/A    ","OK ","OK ",    000623.101,    -067.860,    -150.825,    0012.667,    0046.454
"FRM_AIS_EDR_2201.DAT           ",2005-10-01T00:41:06.72 ,"1/0076207261.42629",    0,   61,  274896,"AIS","B1","B1","B1","B1","PISd",0,0,0,0,"B1", 0,15,   0, 0,    0,"AIS","N/A    ","OK ","OK ",    000615.551,    -067.441,    -150.684,    0012.679,    0046.063
"FRM_AIS_EDR_2201.DAT           ",2005-10-01T00:41:14.26 ,"1/0076207269.12692",    0,   62,  274896,"AIS","B1","B1","B1","B1","PISd",0,0,0,0,"B1", 0,15,   0, 0,    0,"AIS","N/A    ","OK ","OK ",    000608.067,    -067.019,    -150.547,    0012.690,    0045.672
"FRM_AIS_EDR_2201.DAT           ",2005-10-01T00:41:21.80 ,"1/0076207276.48292",    0,   63,  274896,"AIS","B1","B1","B1","B1","PISd",0,0,0,0,"B1", 0,15,   0, 0,    0,"AIS","N/A    ","OK ","OK ",    000600.650,    -066.596,    -150.416,    0012.701,    0045.278
"FRM_AIS_EDR_2201.DAT           ",2005-10-01T00:41:29.35 ,"1/0076207284.18355",    0,   64,  274896,"AIS","B1","B1","B1","B1","PISd",0,0,0,0,"B1", 0,15,   0, 0,    0,"AIS","N/A    ","OK ","OK ",    000593.300,    -066.171,    -150.290,    0012.711,    0044.884
"FRM_AIS_EDR_2201.DAT           ",2005-10-01T00:41:36.89 ,"1/0076207291.53954",    0,   65,  274896,"AIS","B1","B1","B1","B1","PISd",0,0,0,0,"B1", 0,15,   0, 0,    0,"AIS","N/A    ","OK ","OK ",    000586.018,    -065.745,    -150.168,    0012.721,    0044.489
"FRM_AIS_EDR_2201.DAT           ",2005-10-01T00:41:44.43 ,"1/0076207299.24018",    0,   66,  274896,"AIS","B1","B1","B1","B1","PISd",0,0,0,0,"B1", 0,15,   0, 0,    0,"AIS","N/A    ","OK ","OK ",    000578.805,    -065.317,    -150.051,    0012.731,    0044.093
"FRM_AIS_EDR_2201.DAT           ",2005-10-01T00:41:51.98 ,"1/0076207306.59617",    0,   67,  274896,"AIS","B1","B1","B1","B1","PISd",0,0,0,0,"B1", 0,15,   0, 0,    0,"AIS","N/A    ","OK ","OK ",    000571.662,    -064.887,    -149.938,    0012.741,    0043.696
"FRM_AIS_EDR_2201.DAT           ",2005-10-01T00:41:59.52 ,"1/0076207314.29680",    0,   68,  274896,"AIS","B1","B1","B1","B1","PISd",0,0,0,0,"B1", 0,15,   0, 0,    0,"AIS","N/A    ","OK ","OK ",    000564.589,    -064.455,    -149.829,    0012.750,    0043.298
"FRM_AIS_EDR_2201.DAT           ",2005-10-01T00:42:07.06 ,"1/0076207321.65280",    0,   69,  274896,"AIS","B1","B1","B1","B1","PISd",0,0,0,0,"B1", 0,15,   0, 0,    0,"AIS","N/A    ","OK ","OK ",    000557.587,    -064.022,    -149.724,    0012.759,    0042.899
"FRM_AIS_EDR_2201.DAT           ",2005-10-01T00:42:14.61 ,"1/0076207329.35343",    0,   70,  274896,"AIS","B1","B1","B1","B1","PISd",0,0,0,0,"B1", 0,15,   0, 0,    0,"AIS","N/A    ","OK ","OK ",    000550.656,    -063.587,    -149.622,    0012.768,    0042.499
"FRM_AIS_EDR_2201.DAT           ",2005-10-01T00:42:22.15 ,"1/0076207337.05406",    0,   71,  274896,"AIS","B1","B1","B1","B1","PISd",0,0,0,0,"B1", 0,15,   0, 0,    0,"AIS","N/A    ","OK ","OK ",    000543.797,    -063.151,    -149.524,    0012.776,    0042.099
"FRM_AIS_EDR_2201.DAT           ",2005-10-01T00:42:29.69 ,"1/0076207344.41006",    0,   72,  274896,"AIS","B1","B1","B1","B1","PISd",0,0,0,0,"B1", 0,15,   0, 0,    0,"AIS","N/A    ","OK ","OK ",    000537.012,    -062.713,    -149.430,    0012.785,    0041.697
"FRM_AIS_EDR_2201.DAT           ",2005-10-01T00:42:37.24 ,"1/0076207352.11069",    0,   73,  274896,"AIS","B1","B1","B1","B1","PISd",0,0,0,0,"B1", 0,15,   0, 0,    0,"AIS","N/A    ","OK ","OK ",    000530.300,    -062.273,    -149.338,    0012.793,    0041.295
"FRM_AIS_EDR_2201.DAT           ",2005-10-01T00:42:44.78 ,"1/0076207359.46668",    0,   74,  274896,"AIS","B1","B1","B1","B1","PISd",0,0,0,0,"B1", 0,15,   0, 0,    0,"AIS","N/A    ","OK ","OK ",    000523.662,    -061.832,    -149.250,    0012.801,    0040.892
"FRM_AIS_EDR_2201.DAT           ",2005-10-01T00:42:52.32 ,"1/0076207367.16732",    0,   75,  274896,"AIS","B1","B1","B1","B1","PISd",0,0,0,0,"B1", 0,15,   0, 0,    0,"AIS","N/A    ","OK ","OK ",    000517.099,    -061.389,    -149.165,    0012.809,    0040.488
"FRM_AIS_EDR_2201.DAT           ",2005-10-01T00:42:59.86 ,"1/0076207374.52331",    0,   76,  274896,"AIS","B1","B1","B1","B1","PISd",0,0,0,0,"B1", 0,15,   0, 0,    0,"AIS","N/A    ","OK ","OK ",    000510.611,    -060.945,    -149.083,    0012.816,    0040.083
"FRM_AIS_EDR_2201.DAT           ",2005-10-01T00:43:07.41 ,"1/0076207382.22394",    0,   77,  274896,"AIS","B1","B1","B1","B1","PISd",0,0,0,0,"B1", 0,15,   0, 0,    0,"AIS","N/A    ","OK ","OK ",    000504.200,    -060.499,    -149.003,    0012.823,    0039.678
"FRM_AIS_EDR_2201.DAT           ",2005-10-01T00:43:14.95 ,"1/0076207389.57994",    0,   78,  274896,"AIS","B1","B1","B1","B1","PISd",0,0,0,0,"B1", 0,15,   0, 0,    0,"AIS","N/A    ","OK ","OK ",    000497.866,    -060.051,    -148.927,    0012.831,    0039.272
"FRM_AIS_EDR_2201.DAT           ",2005-10-01T00:43:22.49 ,"1/0076207397.28057",    0,   79,  274896,"AIS","B1","B1","B1","B1","PISd",0,0,0,0,"B1", 0,15,   0, 0,    0,"AIS","N/A    ","OK ","OK ",    000491.609,    -059.602,    -148.852,    0012.838,    0038.866
"FRM_AIS_EDR_2201.DAT           ",2005-10-01T00:43:30.04 ,"1/0076207404.63656",    0,   80,  274896,"AIS","B1","B1","B1","B1","PISd",0,0,0,0,"B1", 0,15,   0, 0,    0,"AIS","N/A    ","OK ","OK ",    000485.430,    -059.152,    -148.780,    0012.844,    0038.459
"FRM_AIS_EDR_2201.DAT           ",2005-10-01T00:43:37.58 ,"1/0076207412.33720",    0,   81,  274896,"AIS","B1","B1","B1","B1","PISd",0,0,0,0,"B1", 0,15,   0, 0,    0,"AIS","N/A    ","OK ","OK ",    000479.330,    -058.700,    -148.711,    0012.851,    0038.052
"FRM_AIS_EDR_2201.DAT           ",2005-10-01T00:43:45.12 ,"1/0076207420.03783",    0,   82,  274896,"AIS","B1","B1","B1","B1","PISd",0,0,0,0,"B1", 0,15,   0, 0,    0,"AIS","N/A    ","OK ","OK ",    000473.310,    -058.246,    -148.644,    0012.857,    0037.644
"FRM_AIS_EDR_2201.DAT           ",2005-10-01T00:43:52.67 ,"1/0076207427.39382",    0,   83,  274896,"AIS","B1","B1","B1","B1","PISd",0,0,0,0,"B1", 0,15,   0, 0,    0,"AIS","N/A    ","OK ","OK ",    000467.370,    -057.791,    -148.579,    0012.864,    0037.235
"FRM_AIS_EDR_2201.DAT           ",2005-10-01T00:44:00.21 ,"1/0076207435.09446",    0,   84,  274896,"AIS","B1","B1","B1","B1","PISd",0,0,0,0,"B1", 0,15,   0, 0,    0,"AIS","N/A    ","OK ","OK ",    000461.510,    -057.335,    -148.516,    0012.870,    0036.827
"FRM_AIS_EDR_2201.DAT           ",2005-10-01T00:44:07.75 ,"1/0076207442.45045",    0,   85,  274896,"AIS","B1","B1","B1","B1","PISd",0,0,0,0,"B1", 0,15,   0, 0,    0,"AIS","N/A    ","OK ","OK ",    000455.732,    -056.877,    -148.455,    0012.876,    0036.418
"FRM_AIS_EDR_2201.DAT           ",2005-10-01T00:44:15.30 ,"1/0076207450.15108",    0,   86,  274896,"AIS","B1","B1","B1","B1","PISd",0,0,0,0,"B1", 0,15,   0, 0,    0,"AIS","N/A    ","OK ","OK ",    000450.036,    -056.418,    -148.396,    0012.882,    0036.009
"FRM_AIS_EDR_2201.DAT           ",2005-10-01T00:44:22.84 ,"1/0076207457.50708",    0,   87,  274896,"AIS","B1","B1","B1","B1","PISd",0,0,0,0,"B1", 0,15,   0, 0,    0,"AIS","N/A    ","OK ","OK ",    000444.423,    -055.958,    -148.339,    0012.888,    0035.599
"FRM_AIS_EDR_2201.DAT           ",2005-10-01T00:44:30.38 ,"1/0076207465.20771",    0,   88,  274896,"AIS","B1","B1","B1","B1","PISd",0,0,0,0,"B1", 0,15,   0, 0,    0,"AIS","N/A    ","OK ","OK ",    000438.892,    -055.496,    -148.283,    0012.894,    0035.190
"FRM_AIS_EDR_2201.DAT           ",2005-10-01T00:44:37.93 ,"1/0076207472.56370",    0,   89,  274896,"AIS","B1","B1","B1","B1","PISd",0,0,0,0,"B1", 0,15,   0, 0,    0,"AIS","N/A    ","OK ","OK ",    000433.446,    -055.033,    -148.230,    0012.899,    0034.780
"FRM_AIS_EDR_2201.DAT           ",2005-10-01T00:44:45.47 ,"1/0076207480.26434",    0,   90,  274896,"AIS","B1","B1","B1","B1","PISd",0,0,0,0,"B1", 0,15,   0, 0,    0,"AIS","N/A    ","OK ","OK ",    000428.085,    -054.568,    -148.178,    0012.905,    0034.371